contact:dominique.lefevre@mio.osupytheas.fr, maurice.libes@osupytheas.fr, didier.mallarino@osupytheas.fr
Project:EMSO http://www.emso-fr.org/EMSO-France
Depth: 2436.0 m
Title:EMSO Ligure Ouest : Data MII capteur MICROCAT
DateTime_Computer,Latitude,Longitude,Temperature,Conductivity,Pressure,DateTime_Instrument
DateTime_Computer,Latitude,Longitude,degC,S m-1,dbar,DateTime_Instrument
2023-04-01T00:01:20Z,42.805,6.029,13.3029,4.60097,2470.624,2023-4-01T02:04:09Z
2023-04-01T00:04:23Z,42.805,6.029,13.3029,4.60092,2470.646,2023-4-01T02:07:12Z
2023-04-01T00:07:26Z,42.805,6.029,13.3032,4.60089,2470.684,2023-4-01T02:10:15Z
2023-04-01T00:10:29Z,42.805,6.029,13.3030,4.60090,2470.624,2023-4-01T02:13:18Z
2023-04-01T00:13:33Z,42.805,6.029,13.3037,4.60088,2470.624,2023-4-01T02:16:21Z
2023-04-01T00:16:36Z,42.805,6.029,13.3034,4.60087,2470.6,2023-4-01T02:19:24Z
2023-04-01T00:19:39Z,42.805,6.029,13.3032,4.60087,2470.624,2023-4-01T02:22:28Z
2023-04-01T00:22:42Z,42.805,6.029,13.3029,4.60087,2470.646,2023-4-01T02:25:31Z
2023-04-01T00:25:45Z,42.805,6.029,13.3031,4.60087,2470.624,2023-4-01T02:28:34Z
2023-04-01T00:28:48Z,42.805,6.029,13.3030,4.60091,2470.646,2023-4-01T02:31:37Z
2023-04-01T00:31:51Z,42.805,6.029,13.3026,4.60091,2470.624,2023-4-01T02:34:40Z
2023-04-01T00:34:54Z,42.805,6.029,13.3033,4.60087,2470.646,2023-4-01T02:37:43Z
2023-04-01T00:37:57Z,42.805,6.029,13.3034,4.60097,2470.624,2023-4-01T02:40:46Z
2023-04-01T00:41:00Z,42.805,6.029,13.3032,4.60092,2470.637,2023-4-01T02:43:49Z
2023-04-01T00:44:03Z,42.805,6.029,13.3034,4.60087,2470.646,2023-4-01T02:46:52Z
2023-04-01T00:47:06Z,42.805,6.029,13.3026,4.60087,2470.646,2023-4-01T02:49:55Z
2023-04-01T00:50:09Z,42.805,6.029,13.3030,4.60092,2470.661,2023-4-01T02:52:58Z
2023-04-01T00:53:13Z,42.805,6.029,13.3025,4.60087,2470.646,2023-4-01T02:56:01Z
2023-04-01T00:56:16Z,42.805,6.029,13.3029,4.60102,2470.646,2023-4-01T02:59:04Z
2023-04-01T00:59:19Z,42.805,6.029,13.3030,4.60087,2470.646,2023-4-01T03:02:07Z
2023-04-01T01:02:22Z,42.805,6.029,13.3034,4.60086,2470.67,2023-4-01T03:05:11Z
2023-04-01T01:05:25Z,42.805,6.029,13.3033,4.60089,2470.646,2023-4-01T03:08:14Z
2023-04-01T01:08:28Z,42.805,6.029,13.3035,4.60087,2470.67,2023-4-01T03:11:17Z
2023-04-01T01:11:31Z,42.805,6.029,13.3028,4.60088,2470.637,2023-4-01T03:14:20Z
2023-04-01T01:14:34Z,42.805,6.029,13.3030,4.60088,2470.646,2023-4-01T03:17:23Z
2023-04-01T01:17:37Z,42.805,6.029,13.3030,4.60088,2470.637,2023-4-01T03:20:26Z
2023-04-01T01:20:40Z,42.805,6.029,13.3034,4.60089,2470.679,2023-4-01T03:23:29Z
2023-04-01T01:23:43Z,42.805,6.029,13.3032,4.60088,2470.637,2023-4-01T03:26:32Z
2023-04-01T01:26:46Z,42.805,6.029,13.3027,4.60087,2470.646,2023-4-01T03:29:35Z
2023-04-01T01:29:49Z,42.805,6.029,13.3025,4.60087,2470.684,2023-4-01T03:32:38Z
2023-04-01T01:32:53Z,42.805,6.029,13.3031,4.60088,2470.661,2023-4-01T03:35:41Z
2023-04-01T01:35:56Z,42.805,6.029,13.3032,4.60093,2470.661,2023-4-01T03:38:44Z
2023-04-01T01:38:59Z,42.805,6.029,13.3034,4.60090,2470.67,2023-4-01T03:41:48Z
2023-04-01T01:42:02Z,42.805,6.029,13.3029,4.60095,2470.717,2023-4-01T03:44:51Z
2023-04-01T01:45:05Z,42.805,6.029,13.3029,4.60087,2470.707,2023-4-01T03:47:54Z
2023-04-01T01:48:08Z,42.805,6.029,13.3031,4.60087,2470.684,2023-4-01T03:50:57Z
2023-04-01T01:51:11Z,42.805,6.029,13.3032,4.60090,2470.646,2023-4-01T03:54:00Z
2023-04-01T01:54:14Z,42.805,6.029,13.3031,4.60090,2470.67,2023-4-01T03:57:03Z
2023-04-01T01:57:17Z,42.805,6.029,13.3027,4.60093,2470.646,2023-4-01T04:00:06Z
2023-04-01T02:00:20Z,42.805,6.029,13.3026,4.60086,2470.707,2023-4-01T04:03:09Z
2023-04-01T02:03:23Z,42.805,6.029,13.3030,4.60086,2470.67,2023-4-01T04:06:12Z
2023-04-01T02:06:26Z,42.805,6.029,13.3025,4.60081,2470.703,2023-4-01T04:09:15Z
2023-04-01T02:09:30Z,42.805,6.029,13.3031,4.60089,2470.684,2023-4-01T04:12:18Z
2023-04-01T02:12:33Z,42.805,6.029,13.3030,4.60089,2470.684,2023-4-01T04:15:21Z
2023-04-01T02:15:36Z,42.805,6.029,13.3029,4.60086,2470.707,2023-4-01T04:18:24Z
2023-04-01T02:18:39Z,42.805,6.029,13.3029,4.60088,2470.707,2023-4-01T04:21:28Z
2023-04-01T02:21:42Z,42.805,6.029,13.3030,4.60087,2470.693,2023-4-01T04:24:31Z
2023-04-01T02:24:45Z,42.805,6.029,13.3025,4.60087,2470.693,2023-4-01T04:27:34Z
2023-04-01T02:27:48Z,42.805,6.029,13.3026,4.60087,2470.693,2023-4-01T04:30:37Z
2023-04-01T02:30:51Z,42.805,6.029,13.3031,4.60087,2470.693,2023-4-01T04:33:40Z
2023-04-01T02:33:54Z,42.805,6.029,13.3031,4.60084,2470.67,2023-4-01T04:36:43Z
2023-04-01T02:36:57Z,42.805,6.029,13.3031,4.60086,2470.693,2023-4-01T04:39:46Z
2023-04-01T02:40:00Z,42.805,6.029,13.3027,4.60086,2470.754,2023-4-01T04:42:49Z
2023-04-01T02:43:03Z,42.805,6.029,13.3033,4.60088,2470.717,2023-4-01T04:45:52Z
2023-04-01T02:46:06Z,42.805,6.029,13.3026,4.60089,2470.707,2023-4-01T04:48:55Z
2023-04-01T02:49:10Z,42.805,6.029,13.3031,4.60085,2470.693,2023-4-01T04:51:58Z
2023-04-01T02:52:13Z,42.805,6.029,13.3031,4.60087,2470.717,2023-4-01T04:55:01Z
2023-04-01T02:55:16Z,42.805,6.029,13.3029,4.60089,2470.717,2023-4-01T04:58:05Z
2023-04-01T02:58:19Z,42.805,6.029,13.3031,4.60088,2470.693,2023-4-01T05:01:08Z
2023-04-01T03:01:22Z,42.805,6.029,13.3031,4.60085,2470.717,2023-4-01T05:04:11Z
2023-04-01T03:04:25Z,42.805,6.029,13.3027,4.60086,2470.73,2023-4-01T05:07:14Z
2023-04-01T03:07:28Z,42.805,6.029,13.3029,4.60087,2470.717,2023-4-01T05:10:17Z
2023-04-01T03:10:31Z,42.805,6.029,13.3028,4.60088,2470.73,2023-4-01T05:13:20Z
2023-04-01T03:13:34Z,42.805,6.029,13.3027,4.60090,2470.73,2023-4-01T05:16:23Z
2023-04-01T03:16:37Z,42.805,6.029,13.3031,4.60090,2470.717,2023-4-01T05:19:26Z
2023-04-01T03:19:40Z,42.805,6.029,13.3026,4.60087,2470.707,2023-4-01T05:22:29Z
2023-04-01T03:22:43Z,42.805,6.029,13.3026,4.60097,2470.717,2023-4-01T05:25:32Z
2023-04-01T03:25:46Z,42.805,6.029,13.3023,4.60086,2470.693,2023-4-01T05:28:35Z
2023-04-01T03:28:50Z,42.805,6.029,13.3029,4.60087,2470.74,2023-4-01T05:31:38Z
2023-04-01T03:31:53Z,42.805,6.029,13.3029,4.60092,2470.717,2023-4-01T05:34:41Z
2023-04-01T03:34:56Z,42.805,6.029,13.3034,4.60088,2470.754,2023-4-01T05:37:45Z
2023-04-01T03:37:59Z,42.805,6.029,13.3030,4.60089,2470.717,2023-4-01T05:40:48Z
2023-04-01T03:41:02Z,42.805,6.029,13.3029,4.60096,2470.73,2023-4-01T05:43:51Z
2023-04-01T03:44:05Z,42.805,6.029,13.3027,4.60086,2470.73,2023-4-01T05:46:54Z
2023-04-01T03:47:08Z,42.805,6.029,13.3026,4.60095,2470.717,2023-4-01T05:49:57Z
2023-04-01T03:50:11Z,42.805,6.029,13.3029,4.60086,2470.693,2023-4-01T05:53:00Z
2023-04-01T03:53:14Z,42.805,6.029,13.3031,4.60089,2470.717,2023-4-01T05:56:03Z
2023-04-01T03:56:17Z,42.805,6.029,13.3029,4.60086,2470.74,2023-4-01T05:59:06Z
2023-04-01T03:59:20Z,42.805,6.029,13.3027,4.60086,2470.754,2023-4-01T06:02:09Z
2023-04-01T04:02:23Z,42.805,6.029,13.3026,4.60087,2470.703,2023-4-01T06:05:12Z
2023-04-01T04:05:26Z,42.805,6.029,13.3029,4.60084,2470.74,2023-4-01T06:08:15Z
2023-04-01T04:08:30Z,42.805,6.029,13.3027,4.60087,2470.763,2023-4-01T06:11:18Z
2023-04-01T04:11:33Z,42.805,6.029,13.3029,4.60095,2470.717,2023-4-01T06:14:21Z
2023-04-01T04:14:36Z,42.805,6.029,13.3029,4.60091,2470.74,2023-4-01T06:17:25Z
2023-04-01T04:17:39Z,42.805,6.029,13.3026,4.60088,2470.717,2023-4-01T06:20:28Z
2023-04-01T04:20:42Z,42.805,6.029,13.3031,4.60090,2470.754,2023-4-01T06:23:31Z
2023-04-01T04:23:45Z,42.805,6.029,13.3025,4.60086,2470.74,2023-4-01T06:26:34Z
2023-04-01T04:26:48Z,42.805,6.029,13.3024,4.60087,2470.763,2023-4-01T06:29:37Z
2023-04-01T04:29:51Z,42.805,6.029,13.3030,4.60084,2470.74,2023-4-01T06:32:40Z
2023-04-01T04:32:54Z,42.805,6.029,13.3027,4.60087,2470.717,2023-4-01T06:35:43Z
2023-04-01T04:35:57Z,42.805,6.029,13.3027,4.60085,2470.74,2023-4-01T06:38:46Z
2023-04-01T04:39:00Z,42.805,6.029,13.3034,4.60089,2470.717,2023-4-01T06:41:49Z
2023-04-01T04:42:03Z,42.805,6.029,13.3034,4.60090,2470.74,2023-4-01T06:44:52Z
2023-04-01T04:45:07Z,42.805,6.029,13.3025,4.60093,2470.74,2023-4-01T06:47:55Z
2023-04-01T04:48:10Z,42.805,6.029,13.3034,4.60088,2470.754,2023-4-01T06:50:58Z
2023-04-01T04:51:13Z,42.805,6.029,13.3026,4.60094,2470.74,2023-4-01T06:54:02Z
2023-04-01T04:54:16Z,42.805,6.029,13.3024,4.60091,2470.777,2023-4-01T06:57:05Z
2023-04-01T04:57:19Z,42.805,6.029,13.3033,4.60097,2470.717,2023-4-01T07:00:08Z
2023-04-01T05:00:22Z,42.805,6.029,13.3034,4.60099,2470.763,2023-4-01T07:03:11Z
2023-04-01T05:03:25Z,42.805,6.029,13.3027,4.60089,2470.754,2023-4-01T07:06:14Z
2023-04-01T05:06:28Z,42.805,6.029,13.3029,4.60114,2470.754,2023-4-01T07:09:17Z
2023-04-01T05:09:31Z,42.805,6.029,13.3034,4.60099,2470.74,2023-4-01T07:12:20Z
2023-04-01T05:12:34Z,42.805,6.029,13.3028,4.60089,2470.763,2023-4-01T07:15:23Z
2023-04-01T05:15:37Z,42.805,6.029,13.3035,4.60095,2470.763,2023-4-01T07:18:26Z
2023-04-01T05:18:40Z,42.805,6.029,13.3031,4.60089,2470.754,2023-4-01T07:21:29Z
2023-04-01T05:21:43Z,42.805,6.029,13.3029,4.60090,2470.74,2023-4-01T07:24:32Z
2023-04-01T05:24:47Z,42.805,6.029,13.3030,4.60087,2470.74,2023-4-01T07:27:35Z
2023-04-01T05:27:50Z,42.805,6.029,13.3024,4.60092,2470.73,2023-4-01T07:30:38Z
2023-04-01T05:30:53Z,42.805,6.029,13.3030,4.60087,2470.754,2023-4-01T07:33:42Z
2023-04-01T05:33:56Z,42.805,6.029,13.3031,4.60094,2470.754,2023-4-01T07:36:45Z
2023-04-01T05:36:59Z,42.805,6.029,13.3028,4.60085,2470.717,2023-4-01T07:39:48Z
2023-04-01T05:40:02Z,42.805,6.029,13.3029,4.60087,2470.74,2023-4-01T07:42:51Z
2023-04-01T05:43:05Z,42.805,6.029,13.3027,4.60087,2470.74,2023-4-01T07:45:54Z
2023-04-01T05:46:08Z,42.805,6.029,13.3034,4.60102,2470.74,2023-4-01T07:48:57Z
2023-04-01T05:49:11Z,42.805,6.029,13.3027,4.60086,2470.74,2023-4-01T07:52:00Z
2023-04-01T05:52:14Z,42.805,6.029,13.3026,4.60089,2470.73,2023-4-01T07:55:03Z
2023-04-01T05:55:17Z,42.805,6.029,13.3023,4.60092,2470.717,2023-4-01T07:58:06Z
2023-04-01T05:58:20Z,42.805,6.029,13.3027,4.60093,2470.74,2023-4-01T08:01:09Z
2023-04-01T06:01:23Z,42.805,6.029,13.3030,4.60085,2470.74,2023-4-01T08:04:12Z
2023-04-01T06:04:26Z,42.805,6.029,13.3030,4.60085,2470.74,2023-4-01T08:07:15Z
2023-04-01T06:07:30Z,42.805,6.029,13.3034,4.60092,2470.777,2023-4-01T08:10:18Z
2023-04-01T06:10:33Z,42.805,6.029,13.3034,4.60091,2470.693,2023-4-01T08:13:22Z
2023-04-01T06:13:36Z,42.805,6.029,13.3033,4.60091,2470.717,2023-4-01T08:16:25Z
2023-04-01T06:16:39Z,42.805,6.029,13.3031,4.60094,2470.74,2023-4-01T08:19:28Z
2023-04-01T06:19:42Z,42.805,6.029,13.3026,4.60091,2470.74,2023-4-01T08:22:31Z
2023-04-01T06:22:45Z,42.805,6.029,13.3029,4.60097,2470.74,2023-4-01T08:25:34Z
2023-04-01T06:25:48Z,42.805,6.029,13.3028,4.60088,2470.74,2023-4-01T08:28:37Z
2023-04-01T06:28:51Z,42.805,6.029,13.3027,4.60097,2470.74,2023-4-01T08:31:40Z
2023-04-01T06:31:54Z,42.805,6.029,13.3029,4.60097,2470.754,2023-4-01T08:34:43Z
2023-04-01T06:34:57Z,42.805,6.029,13.3025,4.60085,2470.703,2023-4-01T08:37:46Z
2023-04-01T06:38:00Z,42.805,6.029,13.3030,4.60087,2470.717,2023-4-01T08:40:49Z
2023-04-01T06:41:03Z,42.805,6.029,13.3026,4.60086,2470.754,2023-4-01T08:43:52Z
2023-04-01T06:44:07Z,42.805,6.029,13.3026,4.60086,2470.74,2023-4-01T08:46:55Z
2023-04-01T06:47:10Z,42.805,6.029,13.3023,4.60087,2470.73,2023-4-01T08:49:59Z
2023-04-01T06:50:13Z,42.805,6.029,13.3026,4.60087,2470.717,2023-4-01T08:53:02Z
2023-04-01T06:53:16Z,42.805,6.029,13.3028,4.60084,2470.73,2023-4-01T08:56:05Z
2023-04-01T06:56:19Z,42.805,6.029,13.3033,4.60089,2470.717,2023-4-01T08:59:08Z
2023-04-01T06:59:22Z,42.805,6.029,13.3025,4.60097,2470.693,2023-4-01T09:02:11Z
2023-04-01T07:02:25Z,42.805,6.029,13.3029,4.60089,2470.754,2023-4-01T09:05:14Z
2023-04-01T07:05:28Z,42.805,6.029,13.3031,4.60089,2470.717,2023-4-01T09:08:17Z
2023-04-01T07:08:31Z,42.805,6.029,13.3028,4.60089,2470.707,2023-4-01T09:11:20Z
2023-04-01T07:11:34Z,42.805,6.029,13.3034,4.60088,2470.717,2023-4-01T09:14:23Z
2023-04-01T07:14:37Z,42.805,6.029,13.3029,4.60087,2470.717,2023-4-01T09:17:26Z
2023-04-01T07:17:40Z,42.805,6.029,13.3027,4.60093,2470.73,2023-4-01T09:20:29Z
2023-04-01T07:20:44Z,42.805,6.029,13.3029,4.60087,2470.754,2023-4-01T09:23:32Z
2023-04-01T07:23:47Z,42.805,6.029,13.3034,4.60089,2470.717,2023-4-01T09:26:36Z
2023-04-01T07:26:50Z,42.805,6.029,13.3028,4.60088,2470.717,2023-4-01T09:29:39Z
2023-04-01T07:29:53Z,42.805,6.029,13.3028,4.60092,2470.717,2023-4-01T09:32:42Z
2023-04-01T07:32:56Z,42.805,6.029,13.3028,4.60090,2470.67,2023-4-01T09:35:45Z
2023-04-01T07:35:59Z,42.805,6.029,13.3022,4.60087,2470.73,2023-4-01T09:38:48Z
2023-04-01T07:39:02Z,42.805,6.029,13.3032,4.60087,2470.73,2023-4-01T09:41:51Z
2023-04-01T07:42:05Z,42.805,6.029,13.3030,4.60087,2470.693,2023-4-01T09:44:54Z
2023-04-01T07:45:08Z,42.805,6.029,13.3031,4.60087,2470.717,2023-4-01T09:47:57Z
2023-04-01T07:48:11Z,42.805,6.029,13.3027,4.60089,2470.693,2023-4-01T09:51:00Z
2023-04-01T07:51:14Z,42.805,6.029,13.3031,4.60090,2470.693,2023-4-01T09:54:03Z
2023-04-01T07:54:17Z,42.805,6.029,13.3027,4.60088,2470.73,2023-4-01T09:57:06Z
2023-04-01T07:57:20Z,42.805,6.029,13.3029,4.60093,2470.707,2023-4-01T10:00:09Z
2023-04-01T08:00:24Z,42.805,6.029,13.3033,4.60089,2470.717,2023-4-01T10:03:12Z
2023-04-01T08:03:27Z,42.805,6.029,13.3029,4.60087,2470.693,2023-4-01T10:06:16Z
2023-04-01T08:06:30Z,42.805,6.029,13.3030,4.60097,2470.693,2023-4-01T10:09:19Z
2023-04-01T08:09:33Z,42.805,6.029,13.3031,4.60096,2470.693,2023-4-01T10:12:22Z
2023-04-01T08:12:36Z,42.805,6.029,13.3029,4.60091,2470.67,2023-4-01T10:15:25Z
2023-04-01T08:15:39Z,42.805,6.029,13.3027,4.60087,2470.717,2023-4-01T10:18:28Z
2023-04-01T08:18:42Z,42.805,6.029,13.3027,4.60087,2470.693,2023-4-01T10:21:31Z
2023-04-01T08:21:45Z,42.805,6.029,13.3034,4.60090,2470.717,2023-4-01T10:24:34Z
2023-04-01T08:24:48Z,42.805,6.029,13.3031,4.60086,2470.67,2023-4-01T10:27:37Z
2023-04-01T08:27:51Z,42.805,6.029,13.3027,4.60087,2470.67,2023-4-01T10:30:40Z
2023-04-01T08:30:53Z,42.805,6.029,13.3029,4.60087,2470.67,2023-4-01T10:33:42Z
2023-04-01T08:33:56Z,42.805,6.029,13.3029,4.60085,2470.67,2023-4-01T10:36:45Z
2023-04-01T08:36:59Z,42.805,6.029,13.3030,4.60089,2470.707,2023-4-01T10:39:48Z
2023-04-01T08:40:02Z,42.805,6.029,13.3029,4.60088,2470.646,2023-4-01T10:42:51Z
2023-04-01T08:43:05Z,42.805,6.029,13.3031,4.60094,2470.684,2023-4-01T10:45:54Z
2023-04-01T08:46:08Z,42.805,6.029,13.3039,4.60087,2470.646,2023-4-01T10:48:57Z
2023-04-01T08:49:11Z,42.805,6.029,13.3030,4.60086,2470.684,2023-4-01T10:52:00Z
2023-04-01T08:52:14Z,42.805,6.029,13.3031,4.60093,2470.646,2023-4-01T10:55:03Z
2023-04-01T08:55:18Z,42.805,6.029,13.3028,4.60087,2470.661,2023-4-01T10:58:07Z
2023-04-01T08:58:21Z,42.805,6.029,13.3026,4.60084,2470.646,2023-4-01T11:01:10Z
2023-04-01T09:01:24Z,42.805,6.029,13.3028,4.60087,2470.646,2023-4-01T11:04:13Z
2023-04-01T09:04:27Z,42.805,6.029,13.3028,4.60086,2470.661,2023-4-01T11:07:16Z
2023-04-01T09:07:30Z,42.805,6.029,13.3032,4.60086,2470.661,2023-4-01T11:10:19Z
2023-04-01T09:10:33Z,42.805,6.029,13.3026,4.60086,2470.646,2023-4-01T11:13:22Z
2023-04-01T09:13:36Z,42.805,6.029,13.3027,4.60092,2470.646,2023-4-01T11:16:25Z
2023-04-01T09:16:39Z,42.805,6.029,13.3028,4.60089,2470.646,2023-4-01T11:19:28Z
2023-04-01T09:19:42Z,42.805,6.029,13.3034,4.60089,2470.67,2023-4-01T11:22:31Z
2023-04-01T09:22:45Z,42.805,6.029,13.3024,4.60087,2470.67,2023-4-01T11:25:34Z
2023-04-01T09:25:48Z,42.805,6.029,13.3026,4.60087,2470.646,2023-4-01T11:28:37Z
2023-04-01T09:28:51Z,42.805,6.029,13.3029,4.60087,2470.624,2023-4-01T11:31:40Z
2023-04-01T09:31:55Z,42.805,6.029,13.3029,4.60087,2470.67,2023-4-01T11:34:44Z
2023-04-01T09:34:58Z,42.805,6.029,13.3030,4.60089,2470.646,2023-4-01T11:37:47Z
2023-04-01T09:38:01Z,42.805,6.029,13.3029,4.60099,2470.67,2023-4-01T11:40:50Z
2023-04-01T09:41:04Z,42.805,6.029,13.3028,4.60088,2470.6,2023-4-01T11:43:53Z
2023-04-01T09:44:07Z,42.805,6.029,13.3029,4.60090,2470.661,2023-4-01T11:46:56Z
2023-04-01T09:47:10Z,42.805,6.029,13.3031,4.60088,2470.646,2023-4-01T11:49:59Z
2023-04-01T09:50:13Z,42.805,6.029,13.3029,4.60086,2470.624,2023-4-01T11:53:02Z
2023-04-01T09:53:16Z,42.805,6.029,13.3028,4.60086,2470.624,2023-4-01T11:56:05Z
2023-04-01T09:56:19Z,42.805,6.029,13.3029,4.60091,2470.646,2023-4-01T11:59:08Z
2023-04-01T09:59:22Z,42.805,6.029,13.3026,4.60084,2470.67,2023-4-01T12:02:11Z
2023-04-01T10:02:25Z,42.805,6.029,13.3035,4.60084,2470.624,2023-4-01T12:05:14Z
2023-04-01T10:05:28Z,42.805,6.029,13.3029,4.60088,2470.624,2023-4-01T12:08:17Z
2023-04-01T10:08:32Z,42.805,6.029,13.3029,4.60087,2470.624,2023-4-01T12:11:21Z
2023-04-01T10:11:35Z,42.805,6.029,13.3029,4.60092,2470.624,2023-4-01T12:14:24Z
2023-04-01T10:14:38Z,42.805,6.029,13.3026,4.60084,2470.624,2023-4-01T12:17:27Z
2023-04-01T10:17:41Z,42.805,6.029,13.3031,4.60084,2470.637,2023-4-01T12:20:30Z
2023-04-01T10:20:44Z,42.805,6.029,13.3029,4.60090,2470.6,2023-4-01T12:23:33Z
2023-04-01T10:23:47Z,42.805,6.029,13.3025,4.60084,2470.624,2023-4-01T12:26:36Z
2023-04-01T10:26:50Z,42.805,6.029,13.3029,4.60089,2470.577,2023-4-01T12:29:39Z
2023-04-01T10:29:53Z,42.805,6.029,13.3027,4.60087,2470.646,2023-4-01T12:32:42Z
2023-04-01T10:32:56Z,42.805,6.029,13.3029,4.60092,2470.637,2023-4-01T12:35:45Z
2023-04-01T10:35:59Z,42.805,6.029,13.3029,4.60088,2470.624,2023-4-01T12:38:48Z
2023-04-01T10:39:02Z,42.805,6.029,13.3030,4.60088,2470.624,2023-4-01T12:41:51Z
2023-04-01T10:42:05Z,42.805,6.029,13.3029,4.60087,2470.6,2023-4-01T12:44:54Z
2023-04-01T10:45:08Z,42.805,6.029,13.3031,4.60095,2470.591,2023-4-01T12:47:58Z
2023-04-01T10:48:12Z,42.805,6.029,13.3032,4.60086,2470.6,2023-4-01T12:51:01Z
2023-04-01T10:51:15Z,42.805,6.029,13.3031,4.60088,2470.624,2023-4-01T12:54:04Z
2023-04-01T10:54:18Z,42.805,6.029,13.3029,4.60084,2470.6,2023-4-01T12:57:07Z
2023-04-01T10:57:21Z,42.805,6.029,13.3031,4.60093,2470.6,2023-4-01T13:00:10Z
2023-04-01T11:00:24Z,42.805,6.029,13.3029,4.60087,2470.614,2023-4-01T13:03:13Z
2023-04-01T11:03:27Z,42.805,6.029,13.3022,4.60087,2470.577,2023-4-01T13:06:16Z
2023-04-01T11:06:30Z,42.805,6.029,13.3031,4.60085,2470.6,2023-4-01T13:09:19Z
2023-04-01T11:09:33Z,42.805,6.029,13.3026,4.60084,2470.6,2023-4-01T13:12:22Z
2023-04-01T11:12:36Z,42.805,6.029,13.3032,4.60092,2470.6,2023-4-01T13:15:25Z
2023-04-01T11:15:39Z,42.805,6.029,13.3034,4.60095,2470.624,2023-4-01T13:18:28Z
2023-04-01T11:18:42Z,42.805,6.029,13.3029,4.60086,2470.614,2023-4-01T13:21:31Z
2023-04-01T11:21:46Z,42.805,6.029,13.3026,4.60087,2470.6,2023-4-01T13:24:35Z
2023-04-01T11:24:49Z,42.805,6.029,13.3029,4.60087,2470.624,2023-4-01T13:27:38Z
2023-04-01T11:27:52Z,42.805,6.029,13.3032,4.60094,2470.577,2023-4-01T13:30:41Z
2023-04-01T11:30:55Z,42.805,6.029,13.3027,4.60092,2470.6,2023-4-01T13:33:44Z
2023-04-01T11:33:58Z,42.805,6.029,13.3032,4.60085,2470.6,2023-4-01T13:36:47Z
2023-04-01T11:37:01Z,42.805,6.029,13.3026,4.60089,2470.614,2023-4-01T13:39:50Z
2023-04-01T11:40:04Z,42.805,6.029,13.3031,4.60092,2470.577,2023-4-01T13:42:53Z
2023-04-01T11:43:07Z,42.805,6.029,13.3032,4.60086,2470.577,2023-4-01T13:45:56Z
2023-04-01T11:46:10Z,42.805,6.029,13.3027,4.60087,2470.6,2023-4-01T13:48:59Z
2023-04-01T11:49:13Z,42.805,6.029,13.3028,4.60084,2470.591,2023-4-01T13:52:02Z
2023-04-01T11:52:16Z,42.805,6.029,13.3029,4.60087,2470.577,2023-4-01T13:55:05Z
2023-04-01T11:55:19Z,42.805,6.029,13.3029,4.60085,2470.6,2023-4-01T13:58:08Z
2023-04-01T11:58:22Z,42.805,6.029,13.3031,4.60092,2470.577,2023-4-01T14:01:12Z
2023-04-01T12:01:26Z,42.805,6.029,13.3034,4.60085,2470.577,2023-4-01T14:04:15Z
2023-04-01T12:04:29Z,42.805,6.029,13.3033,4.60086,2470.637,2023-4-01T14:07:18Z
2023-04-01T12:07:32Z,42.805,6.029,13.3031,4.60081,2470.6,2023-4-01T14:10:21Z
2023-04-01T12:10:35Z,42.805,6.029,13.3028,4.60084,2470.6,2023-4-01T14:13:24Z
2023-04-01T12:13:38Z,42.805,6.029,13.3031,4.60087,2470.577,2023-4-01T14:16:27Z
2023-04-01T12:16:41Z,42.805,6.029,13.3026,4.60084,2470.614,2023-4-01T14:19:30Z
2023-04-01T12:19:44Z,42.805,6.029,13.3035,4.60084,2470.553,2023-4-01T14:22:33Z
2023-04-01T12:22:47Z,42.805,6.029,13.3024,4.60082,2470.6,2023-4-01T14:25:36Z
2023-04-01T12:25:50Z,42.805,6.029,13.3027,4.60084,2470.577,2023-4-01T14:28:39Z
2023-04-01T12:28:53Z,42.805,6.029,13.3025,4.60081,2470.6,2023-4-01T14:31:42Z
2023-04-01T12:31:56Z,42.805,6.029,13.3031,4.60081,2470.637,2023-4-01T14:34:45Z
2023-04-01T12:34:59Z,42.805,6.029,13.3031,4.60081,2470.577,2023-4-01T14:37:49Z
2023-04-01T12:38:03Z,42.805,6.029,13.3029,4.60081,2470.591,2023-4-01T14:40:52Z
2023-04-01T12:41:06Z,42.805,6.029,13.3031,4.60081,2470.6,2023-4-01T14:43:55Z
2023-04-01T12:44:09Z,42.805,6.029,13.3029,4.60081,2470.624,2023-4-01T14:46:58Z
2023-04-01T12:47:12Z,42.805,6.029,13.3028,4.60081,2470.6,2023-4-01T14:50:01Z
2023-04-01T12:50:15Z,42.805,6.029,13.3025,4.60079,2470.577,2023-4-01T14:53:04Z
2023-04-01T12:53:18Z,42.805,6.029,13.3029,4.60081,2470.577,2023-4-01T14:56:07Z
2023-04-01T12:56:21Z,42.805,6.029,13.3027,4.60081,2470.6,2023-4-01T14:59:10Z
2023-04-01T12:59:24Z,42.805,6.029,13.3026,4.60084,2470.614,2023-4-01T15:02:13Z
2023-04-01T13:02:27Z,42.805,6.029,13.3027,4.60082,2470.624,2023-4-01T15:05:16Z
2023-04-01T13:05:30Z,42.805,6.029,13.3029,4.60084,2470.6,2023-4-01T15:08:19Z
2023-04-01T13:08:33Z,42.805,6.029,13.3030,4.60084,2470.614,2023-4-01T15:11:22Z
2023-04-01T13:11:36Z,42.805,6.029,13.3036,4.60084,2470.624,2023-4-01T15:14:26Z
2023-04-01T13:14:40Z,42.805,6.029,13.3031,4.60079,2470.6,2023-4-01T15:17:29Z
2023-04-01T13:17:43Z,42.805,6.029,13.3030,4.60084,2470.6,2023-4-01T15:20:32Z
2023-04-01T13:20:46Z,42.805,6.029,13.3025,4.60078,2470.6,2023-4-01T15:23:35Z
2023-04-01T13:23:49Z,42.805,6.029,13.3030,4.60083,2470.577,2023-4-01T15:26:38Z
2023-04-01T13:26:52Z,42.805,6.029,13.3034,4.60081,2470.614,2023-4-01T15:29:41Z
2023-04-01T13:29:55Z,42.805,6.029,13.3025,4.60081,2470.577,2023-4-01T15:32:44Z
2023-04-01T13:32:58Z,42.805,6.029,13.3025,4.60083,2470.6,2023-4-01T15:35:47Z
2023-04-01T13:36:01Z,42.805,6.029,13.3028,4.60084,2470.6,2023-4-01T15:38:50Z
2023-04-01T13:39:04Z,42.805,6.029,13.3029,4.60084,2470.614,2023-4-01T15:41:53Z
2023-04-01T13:42:07Z,42.805,6.029,13.3027,4.60080,2470.624,2023-4-01T15:44:56Z
2023-04-01T13:45:10Z,42.805,6.029,13.3030,4.60082,2470.614,2023-4-01T15:47:59Z
2023-04-01T13:48:13Z,42.805,6.029,13.3031,4.60086,2470.6,2023-4-01T15:51:03Z
2023-04-01T13:51:17Z,42.805,6.029,13.3030,4.60081,2470.6,2023-4-01T15:54:06Z
2023-04-01T13:54:20Z,42.805,6.029,13.3031,4.60092,2470.586,2023-4-01T15:57:09Z
2023-04-01T13:57:23Z,42.805,6.029,13.3030,4.60087,2470.6,2023-4-01T16:00:12Z
2023-04-01T14:00:26Z,42.805,6.029,13.3031,4.60082,2470.624,2023-4-01T16:03:15Z
2023-04-01T14:03:29Z,42.805,6.029,13.3031,4.60083,2470.624,2023-4-01T16:06:18Z
2023-04-01T14:06:32Z,42.805,6.029,13.3028,4.60078,2470.614,2023-4-01T16:09:21Z
2023-04-01T14:09:35Z,42.805,6.029,13.3028,4.60082,2470.6,2023-4-01T16:12:24Z
2023-04-01T14:12:38Z,42.805,6.029,13.3025,4.60084,2470.6,2023-4-01T16:15:27Z
2023-04-01T14:15:41Z,42.805,6.029,13.3029,4.60084,2470.614,2023-4-01T16:18:30Z
2023-04-01T14:18:44Z,42.805,6.029,13.3031,4.60083,2470.6,2023-4-01T16:21:33Z
2023-04-01T14:21:47Z,42.805,6.029,13.3031,4.60082,2470.6,2023-4-01T16:24:36Z
2023-04-01T14:24:50Z,42.805,6.029,13.3028,4.60083,2470.661,2023-4-01T16:27:40Z
2023-04-01T14:27:54Z,42.805,6.029,13.3026,4.60091,2470.646,2023-4-01T16:30:43Z
2023-04-01T14:30:57Z,42.805,6.029,13.3028,4.60081,2470.637,2023-4-01T16:33:46Z
2023-04-01T14:34:00Z,42.805,6.029,13.3027,4.60081,2470.624,2023-4-01T16:36:49Z
2023-04-01T14:37:03Z,42.805,6.029,13.3030,4.60082,2470.624,2023-4-01T16:39:52Z
2023-04-01T14:40:06Z,42.805,6.029,13.3026,4.60081,2470.6,2023-4-01T16:42:55Z
2023-04-01T14:43:09Z,42.805,6.029,13.3026,4.60081,2470.637,2023-4-01T16:45:58Z
2023-04-01T14:46:12Z,42.805,6.029,13.3031,4.60083,2470.637,2023-4-01T16:49:01Z
2023-04-01T14:49:15Z,42.805,6.029,13.3029,4.60082,2470.637,2023-4-01T16:52:04Z
2023-04-01T14:52:18Z,42.805,6.029,13.3031,4.60082,2470.624,2023-4-01T16:55:07Z
2023-04-01T14:55:21Z,42.805,6.029,13.3033,4.60083,2470.637,2023-4-01T16:58:10Z
2023-04-01T14:58:24Z,42.805,6.029,13.3030,4.60084,2470.591,2023-4-01T17:01:13Z
2023-04-01T15:01:27Z,42.805,6.029,13.3031,4.60081,2470.624,2023-4-01T17:04:17Z
2023-04-01T15:04:31Z,42.805,6.029,13.3029,4.60081,2470.624,2023-4-01T17:07:20Z
2023-04-01T15:07:34Z,42.805,6.029,13.3027,4.60084,2470.6,2023-4-01T17:10:23Z
2023-04-01T15:10:37Z,42.805,6.029,13.3027,4.60082,2470.624,2023-4-01T17:13:26Z
2023-04-01T15:13:40Z,42.805,6.029,13.3033,4.60081,2470.6,2023-4-01T17:16:29Z